GFSWCAN_925_rhum_354.txt.gz
RH
76 67 69 70 78 81 78 65 68 68 66 72 66 50 54 46 26 20 34 26 36 91 83 74 85 100 96 98 100 86 85 80 81 93 90 95 95 99 90 100 100 98 100 99 85 94 96 78 65 66 86 95 87 84
77 69 65 66 75 83 82 83 70 65 66 64 63 63 44 27 22 20 32 27 31 47 67 53 59 58 74 89 99 95 94 98 98 97 100 92 96 87 92 78 82 85 99 100 78 88 85 91 87 88 92 93 92 100
83 83 74 69 71 71 70 72 79 84 75 53 54 55 37 16 12 13 36 34 29 90 77 53 55 41 58 80 100 95 88 97 84 98 99 100 96 91 82 82 83 84 92 86 77 77 99 98 83 92 92 94 87 84
86 88 88 83 75 73 76 76 71 41 49 77 63 48 25 17 10 11 18 16 18 47 75 56 28 38 41 44 48 70 68 64 76 86 94 96 91 77 91 85 89 98 91 100 88 72 83 84 92 96 87 78 84 78
83 86 88 90 88 77 50 74 71 72 54 36 46 43 44 21 15 11 13 20 18 36 67 66 31 33 34 31 34 33 44 83 91 90 98 100 100 88 99 92 99 98 87 93 79 67 86 83 81 86 96 93 87 90
14 28 59 55 46 62 20 19 63 75 68 62 35 16 22 30 26 15 64 20 20 16 72 59 57 49 36 31 37 58 61 86 95 93 100 100 100 84 93 88 70 94 100 82 94 90 87 85 93 95 100 93 85 98
12 13 13 20 20 20 15 13 14 20 56 46 29 17 15 16 17 37 61 46 28 27 72 67 69 52 51 51 61 73 58 96 91 100 98 100 96 86 99 100 69 82 83 95 99 100 100 99 88 84 95 92 92 90
10 12 14 18 18 18 18 13 14 15 18 23 22 22 24 24 28 45 48 25 23 24 51 78 65 51 60 74 82 78 89 91 83 99 97 96 91 94 92 79 80 86 88 96 96 99 86 90 96 93 88 92 99 97
16 16 15 14 15 16 17 17 14 15 20 27 31 30 24 26 51 70 60 31 28 37 84 90 99 86 66 75 96 85 96 80 83 93 94 86 91 98 87 84 88 83 86 84 95 99 99 100 98 92 93 93 100 94
22 17 16 15 16 16 15 16 17 15 24 26 23 22 56 33 48 38 30 60 68 74 85 99 91 95 88 83 91 90 96 97 89 92 91 92 87 84 75 76 83 86 88 96 100 99 96 92 90 91 94 91 94 95
49 33 22 18 21 19 16 17 25 19 21 20 30 43 32 34 34 55 79 80 83 88 91 99 99 100 84 98 100 99 99 97 74 84 89 93 90 90 84 96 92 95 96 97 93 91 93 94 95 94 92 91 94 97
47 32 31 29 32 35 22 18 22 22 22 26 28 33 34 57 76 66 98 81 87 94 95 100 97 97 97 94 100 96 90 83 58 94 83 80 84 77 86 91 92 92 96 99 96 96 92 95 95 98 97 97 96 95
78 86 56 36 30 29 27 25 26 24 26 28 35 67 72 78 66 83 99 81 91 94 99 97 97 100 92 92 100 94 66 82 91 79 67 75 80 76 85 92 95 88 93 97 96 91 89 90 87 94 97 93 94 98
26 34 53 24 24 25 27 26 25 27 27 76 68 56 76 76 89 95 93 95 89 98 98 99 100 99 98 100 100 68 79 90 85 97 91 87 68 72 81 94 100 94 91 95 96 95 95 94 92 87 89 87 92 98
20 20 18 24 22 20 23 26 26 26 33 77 71 64 66 88 96 96 97 99 94 98 98 97 96 94 98 98 97 93 82 91 85 86 85 76 72 68 73 79 92 94 94 96 94 98 97 97 97 96 90 86 88 92
15 16 14 16 19 18 18 17 20 28 42 72 71 66 96 88 87 95 100 98 90 96 96 96 100 88 93 100 83 96 99 95 90 92 86 81 80 75 77 77 80 90 94 96 96 96 97 98 98 97 97 96 96 96
12 14 15 14 16 15 15 19 24 56 75 60 73 96 95 95 88 94 97 94 90 96 100 98 90 96 95 87 80 95 96 94 92 89 88 87 81 79 80 83 82 85 87 91 94 98 99 96 97 100 98 89 93 95
15 16 17 15 14 15 17 22 35 69 62 99 78 88 97 90 94 95 88 83 90 95 95 99 97 98 94 98 94 90 91 89 79 77 86 87 91 88 78 82 84 88 91 93 96 97 100 100 98 93 95 95 98 97
14 14 15 15 15 16 25 37 35 64 78 96 96 97 96 91 79 80 82 82 87 93 94 99 97 96 95 93 94 89 87 88 91 82 74 67 68 81 94 88 87 89 92 94 97 97 99 100 100 99 98 99 97 95
13 13 13 15 14 18 48 62 45 73 66 85 96 92 96 93 86 90 90 80 89 95 89 95 96 94 94 91 93 93 93 93 92 88 73 68 75 87 88 91 91 95 96 96 96 91 98 96 93 95 100 100 98 95
12 13 12 12 16 24 60 98 83 98 97 84 99 97 91 96 96 93 88 85 87 97 95 95 93 90 93 89 96 95 91 93 92 93 93 91 84 85 87 89 93 95 94 93 93 90 91 92 94 97 100 98 98 98
12 13 14 15 23 37 77 94 88 90 90 92 90 98 96 88 94 91 92 92 87 84 95 94 93 94 91 87 86 85 88 97 93 94 88 88 90 89 89 91 95 92 92 92 94 95 94 95 98 96 98 97 96 97
14 13 15 18 47 54 56 74 62 87 49 60 90 70 84 88 90 80 89 93 84 51 75 87 92 93 93 82 80 82 87 93 92 91 91 93 94 91 92 92 94 95 92 88 92 96 95 91 94 95 94 95 96 95
12 21 61 66 62 47 82 74 91 83 86 80 76 57 71 87 87 87 72 87 80 69 79 88 90 87 80 77 81 86 90 96 93 87 87 92 92 90 90 86 86 86 92 95 96 94 93 93 91 95 95 95 93 94
35 46 58 43 84 57 62 63 69 68 69 86 66 70 82 92 78 74 72 76 70 89 85 90 87 88 92 87 84 87 90 100 96 95 89 91 98 94 86 84 82 80 93 96 94 95 93 94 94 94 94 93 91 92
44 73 53 70 74 58 78 58 78 80 86 66 75 88 92 83 59 55 77 84 95 93 94 96 96 91 85 90 93 92 97 100 100 93 87 88 87 97 96 92 88 82 97 100 100 97 97 97 95 98 95 97 91 100
36 51 87 88 94 89 85 95 93 87 82 70 89 81 79 52 58 68 82 93 78 75 96 96 100 100 97 99 100 99 100 100 100 99 83 74 71 79 90 98 93 98 98 97 100 100 100 100 98 100 100 100 100 100
80 86 52 77 80 95 73 88 85 78 89 91 90 65 56 53 57 68 62 60 44 75 93 96 95 95 91 92 94 96 96 99 96 85 75 64 71 80 93 100 98 97 94 100 100 100 100 100 100 100 100 100 100 100
76 90 88 69 79 89 89 76 81 94 91 95 81 72 69 74 46 40 29 32 51 83 96 96 94 98 97 94 91 91 91 96 100 90 91 88 84 86 99 100 99 96 100 100 100 100 99 96 97 100 100 98 100 100
75 96 77 81 57 54 82 85 89 80 74 82 83 80 75 55 31 29 26 36 62 86 95 98 97 100 100 100 100 95 85 87 88 100 100 97 98 100 100 100 100 98 100 100 100 100 100 100 96 90 96 99 100 100
93 92 73 88 66 87 82 79 82 80 75 76 79 93 78 62 30 28 34 41 56 59 81 96 98 97 100 100 100 100 95 86 77 76 94 97 100 100 100 100 93 100 100 100 100 100 100 100 100 100 100 100 100 100
88 80 72 43 64 77 69 90 91 93 95 93 88 91 89 90 77 29 28 31 35 39 64 97 100 100 88 87 93 80 89 77 69 86 74 91 92 98 98 94 97 100 100 100 100 100 100 100 100 100 100 100 100 100
88 90 90 83 74 66 84 82 79 76 85 86 84 92 92 77 53 29 26 30 39 54 68 81 92 80 80 81 77 76 69 60 63 78 81 83 89 88 93 97 100 100 100 100 100 100 100 100 100 100 100 100 100 100

GFSWCAN_925_rhum_357.txt.gz
RH
71 81 83 83 83 82 80 76 76 67 64 60 54 50 34 28 11 12 28 21 26 89 86 77 84 99 99 100 100 85 88 83 83 97 93 100 100 100 93 100 100 100 100 99 87 87 86 79 63 59 80 95 88 82
72 73 73 75 76 77 74 76 80 62 64 64 63 60 56 50 14 13 19 22 23 42 64 48 55 59 71 84 99 98 92 100 100 96 99 95 90 84 98 78 79 77 98 99 78 87 81 92 80 84 94 92 91 95
82 77 73 72 75 79 76 71 73 74 69 57 59 62 47 15 12 14 23 24 26 76 81 56 54 40 57 77 97 86 86 91 85 97 95 96 86 90 81 79 83 86 97 87 67 64 94 99 83 88 90 90 86 83
88 89 88 82 72 73 76 77 66 22 44 70 55 44 18 14 13 13 20 21 20 42 70 56 31 36 43 48 57 83 64 71 75 87 95 96 91 79 92 82 90 98 89 99 84 69 78 78 88 91 89 84 82 82
50 50 46 71 80 23 41 76 71 34 20 22 27 30 32 61 66 22 20 35 24 40 64 66 35 35 36 36 38 42 49 88 93 88 93 100 100 87 99 91 94 96 82 84 73 64 78 76 80 88 93 87 85 92
11 11 14 17 23 63 14 14 22 58 73 57 36 33 17 14 25 20 54 22 29 21 71 58 56 47 38 34 36 56 60 87 94 92 100 100 98 83 87 78 60 91 100 79 87 88 83 82 91 90 98 93 84 90
7 7 11 15 22 18 14 11 12 16 26 32 29 25 22 18 14 22 56 42 34 28 72 67 68 50 51 51 61 70 59 95 90 100 98 99 94 87 99 100 84 81 80 87 98 99 96 99 85 84 96 85 92 97
6 9 13 16 14 14 15 17 14 14 15 22 33 35 27 28 30 41 60 34 24 25 51 80 70 55 60 74 84 78 90 93 86 100 98 96 93 95 98 82 86 89 92 94 90 92 79 88 94 92 88 95 99 96
15 15 15 14 14 15 16 18 21 18 20 35 46 41 25 24 39 60 81 33 30 40 84 90 99 88 67 77 96 85 96 83 88 94 95 88 95 98 84 90 93 91 95 90 92 98 96 100 97 93 94 94 100 94
23 17 16 16 18 18 15 16 27 42 36 30 24 24 54 32 48 33 35 61 70 75 86 99 92 98 89 86 92 92 96 97 89 93 92 91 89 88 79 78 87 91 93 97 100 97 96 94 91 90 92 88 90 90
25 24 23 24 24 24 16 21 44 24 23 21 28 40 32 37 36 57 80 81 85 86 91 99 99 100 86 98 100 100 100 95 72 83 84 88 89 82 78 86 86 88 94 96 95 91 93 96 96 94 91 88 91 93
25 25 25 25 26 29 30 20 24 24 24 27 29 34 32 52 73 58 91 78 84 89 95 100 98 98 96 92 100 96 87 83 58 93 80 84 84 74 77 76 78 81 92 96 96 95 94 97 96 97 96 94 92 90
72 62 39 32 33 28 30 26 24 26 28 30 31 61 68 74 57 68 86 75 83 93 99 98 96 100 89 87 99 95 66 79 91 82 66 76 79 78 77 73 74 79 91 95 96 95 96 97 96 98 96 96 95 96
27 30 49 36 24 24 26 26 25 28 27 74 61 42 66 66 79 90 87 90 87 98 99 99 100 99 94 99 100 77 81 94 87 92 92 87 87 90 84 77 78 84 87 92 94 95 97 98 96 96 97 96 99 100
20 22 23 32 22 20 20 20 22 22 29 71 66 47 55 84 95 96 97 97 90 95 97 96 97 93 96 99 97 92 84 90 90 96 96 88 90 84 90 88 88 89 88 90 91 95 97 98 99 98 94 93 97 98
15 17 16 17 16 16 16 14 16 23 38 70 68 59 92 86 85 93 98 96 91 98 95 94 100 87 95 99 79 96 99 99 95 92 88 89 90 87 88 87 88 88 89 91 93 94 96 97 98 97 99 100 97 98
13 14 14 14 14 14 13 16 20 53 74 59 74 96 94 95 86 94 98 95 84 98 100 99 84 96 96 92 92 95 96 94 92 89 85 86 92 92 91 90 88 90 91 92 94 94 96 97 99 100 97 90 92 96
14 16 14 13 14 14 13 19 31 69 63 97 76 87 98 91 92 92 83 84 91 96 95 97 96 92 98 96 94 90 88 82 74 75 77 76 73 74 81 92 90 91 93 93 95 97 96 96 95 90 94 95 98 96
12 14 14 14 13 14 22 36 34 62 78 96 95 97 96 88 79 80 84 84 88 93 92 99 96 97 95 94 93 88 85 87 91 82 72 65 68 79 90 88 90 88 91 94 94 94 96 97 99 97 96 96 94 94
12 12 13 13 13 16 47 62 46 73 68 86 96 94 97 93 89 91 83 76 89 96 94 95 96 95 95 92 92 92 91 92 92 88 75 70 75 84 85 89 91 95 93 89 88 82 87 86 84 89 94 90 91 92
12 12 11 11 15 23 61 98 84 100 98 88 100 97 94 96 95 92 92 82 90 97 96 97 92 87 86 91 90 90 92 92 93 94 94 91 81 84 86 87 90 89 88 89 89 85 84 89 90 96 97 94 97 96
12 12 13 14 22 38 77 96 89 90 90 94 90 96 94 88 90 88 89 88 91 96 96 94 91 93 92 91 91 86 85 92 93 91 87 85 90 90 90 91 94 91 88 88 91 92 90 92 84 88 88 86 89 93
13 12 13 17 48 54 57 68 65 86 55 63 91 72 84 88 90 79 88 93 85 68 85 90 92 91 90 83 80 82 87 95 93 92 93 92 92 90 91 94 91 93 90 84 94 89 93 86 89 88 90 91 90 86
11 21 58 64 62 47 80 72 91 82 84 80 79 56 69 92 90 88 76 88 87 78 78 86 92 90 81 76 78 85 91 98 95 89 88 95 93 91 95 92 89 90 89 91 97 94 94 95 90 96 93 97 92 94
37 49 59 44 83 58 62 65 70 69 68 86 65 67 80 95 78 76 72 85 91 86 85 90 88 89 94 89 84 88 90 99 98 96 90 91 92 94 90 87 86 86 92 98 92 96 95 95 96 98 97 97 97 98
43 72 54 73 75 59 78 58 79 80 89 71 73 90 94 83 60 58 81 95 95 83 94 95 95 92 86 92 98 96 99 100 100 94 88 97 93 97 97 95 88 85 92 100 100 100 98 95 99 100 100 100 100 100
35 52 87 88 93 88 86 95 94 88 76 64 88 86 76 58 74 65 83 82 84 51 90 95 99 100 97 100 99 95 96 97 95 96 82 70 61 66 80 94 95 93 99 100 100 100 100 100 100 100 100 100 100 100
76 86 48 76 81 94 76 88 80 66 83 91 90 65 57 62 88 83 57 50 36 58 60 87 96 98 96 92 91 96 93 86 92 85 76 66 67 75 87 100 100 94 96 100 100 100 100 100 100 100 100 100 100 99
76 91 87 69 80 88 82 71 75 93 92 94 78 69 67 75 42 34 28 29 42 49 66 89 95 100 95 87 87 90 91 91 100 94 92 88 80 84 97 100 100 100 100 100 100 99 100 98 100 100 100 100 97 100
74 98 76 80 53 48 79 83 87 80 76 82 86 81 73 51 25 24 27 35 43 52 65 86 96 100 100 100 100 95 88 87 96 99 99 96 97 99 100 100 100 100 100 100 100 100 100 100 99 98 100 100 100 100
93 92 72 87 64 87 85 87 86 84 78 77 81 93 85 61 30 25 31 36 43 62 76 81 83 92 100 100 100 100 96 87 83 83 100 100 100 100 100 100 100 100 100 100 100 100 100 100 100 100 100 100 100 100
90 80 71 42 63 78 68 92 95 95 96 93 87 96 90 90 74 29 30 37 69 79 64 70 87 92 85 81 84 77 89 86 64 94 96 100 99 99 100 95 100 100 100 100 100 100 100 100 100 100 100 100 100 100
88 90 91 83 76 66 84 83 78 76 84 84 82 93 92 77 58 29 25 34 73 93 70 74 68 71 68 68 74 76 79 57 66 81 92 93 93 92 97 100 100 100 100 100 100 100 100 100 100 100 100 100 100 100

GFSWCAN_925_rhum_360.txt.gz
RH
84 84 84 80 77 80 74 68 67 69 67 59 59 45 21 10 8 7 24 16 26 73 65 82 83 85 79 81 84 70 63 58 64 74 68 75 66 74 62 85 91 65 77 61 47 57 54 69 46 45 72 69 66 64
79 79 81 82 76 71 74 63 67 59 61 53 58 20 9 10 10 13 19 20 21 60 59 45 54 58 68 78 91 75 74 86 81 68 68 53 48 42 74 48 58 51 88 69 71 53 80 78 78 73 75 63 61 65
76 74 73 76 77 75 64 19 20 67 58 45 40 19 10 10 11 10 18 19 20 64 69 48 46 41 54 71 93 74 56 79 72 91 66 61 65 54 47 47 59 76 90 64 61 65 67 74 67 64 70 71 60 58
86 80 72 53 69 76 44 18 28 26 20 45 45 37 38 34 19 14 20 23 19 39 47 45 32 37 42 52 70 94 74 75 67 59 72 66 60 60 55 68 64 74 75 82 59 58 62 66 64 60 61 59 61 61
19 44 56 56 20 16 33 59 36 16 19 24 52 41 24 74 74 29 20 34 27 51 51 38 38 38 39 42 59 56 62 64 64 68 71 79 74 63 74 74 84 87 78 62 50 55 62 60 63 67 73 71 68 71
12 14 15 17 18 13 12 12 13 18 22 28 53 28 18 18 35 23 36 28 32 22 54 38 52 44 44 41 49 54 51 60 75 75 90 92 94 67 78 84 86 92 90 76 72 74 74 74 82 79 83 84 80 82
8 10 13 14 17 18 16 15 16 22 32 60 62 33 20 17 16 26 36 43 31 26 48 46 42 44 54 57 55 53 58 76 72 81 79 72 72 65 86 83 80 83 91 88 81 87 84 77 73 74 90 76 79 88
10 12 12 15 15 15 18 29 43 48 61 54 50 55 28 27 29 49 62 34 24 30 47 74 59 43 61 53 64 63 73 67 71 83 81 77 73 77 84 79 82 84 89 90 90 88 74 77 88 87 88 94 96 93
14 15 16 14 15 19 19 18 29 69 63 62 56 38 25 28 39 62 67 34 35 42 78 78 88 78 60 58 64 64 68 64 68 72 78 76 77 90 91 93 82 77 90 93 89 93 94 97 92 88 86 86 92 89
19 17 16 19 39 79 37 22 50 61 52 36 27 26 46 37 50 35 37 53 63 65 72 86 82 81 71 66 68 72 76 73 74 76 74 72 88 86 91 84 89 82 84 88 95 86 84 87 83 84 86 84 87 87
20 21 22 23 42 85 32 39 29 23 22 21 28 38 32 34 36 48 72 74 70 76 78 88 84 89 73 90 90 95 90 74 64 69 72 68 83 90 89 92 83 86 81 82 89 91 91 90 92 90 85 82 82 85
21 22 23 23 48 32 26 23 22 23 26 30 31 31 25 45 66 58 74 64 69 71 79 86 87 84 79 85 94 85 84 72 63 73 69 70 88 90 87 91 87 86 92 88 82 85 88 89 90 91 91 88 85 86
26 39 28 23 22 24 24 23 24 26 28 27 26 57 65 67 58 57 68 72 77 78 92 91 88 85 77 77 93 93 67 74 72 74 68 84 79 81 86 83 82 76 77 84 82 81 83 86 88 91 93 91 92 95
23 26 25 20 19 19 21 24 26 27 23 68 59 44 67 60 60 71 68 73 70 82 88 90 91 89 85 90 92 86 74 87 72 88 84 78 88 85 84 80 83 84 80 82 81 84 86 86 88 88 89 92 94 94
18 17 16 17 18 17 16 16 16 16 22 65 62 49 53 66 78 83 84 85 77 84 87 88 88 87 88 90 86 81 82 84 91 90 84 78 81 79 83 82 84 84 86 88 88 90 90 90 92 90 88 93 97 97
13 13 16 16 15 14 12 11 12 18 34 69 66 63 76 69 73 78 85 85 84 86 87 88 93 81 89 94 80 94 91 88 83 84 80 78 83 83 82 78 83 87 87 87 87 89 90 90 92 93 94 90 91 96
12 13 13 15 13 12 10 12 14 48 70 55 78 78 75 79 72 74 82 78 83 86 92 89 82 88 91 85 89 89 90 90 88 83 73 75 81 84 79 89 86 87 89 88 90 89 91 91 94 91 85 84 86 89
15 15 14 14 13 13 12 16 28 67 59 90 72 78 79 75 74 76 76 85 82 86 83 97 89 94 95 91 82 81 84 78 73 70 70 71 72 73 81 89 87 91 90 89 92 92 91 88 89 83 87 86 88 86
13 14 14 13 13 13 21 36 34 63 84 88 88 88 82 80 79 81 85 82 87 92 88 94 90 96 85 82 91 83 81 83 87 76 70 66 68 79 86 87 90 88 90 90 90 90 84 82 81 84 87 90 91 81
12 11 12 13 12 14 46 62 46 72 75 88 85 85 85 80 89 91 75 74 83 91 92 95 94 90 93 86 88 91 88 87 88 86 71 68 74 80 83 90 89 92 90 85 82 77 78 77 79 86 86 82 84 82
12 12 11 10 14 22 60 94 83 97 90 82 96 88 86 88 83 83 82 79 91 96 92 88 91 85 86 90 92 92 93 93 92 92 92 89 78 82 84 85 88 91 88 88 85 80 83 82 87 93 90 89 83 87
11 12 12 14 22 36 74 89 84 87 83 88 80 85 83 77 77 81 88 84 95 93 93 94 92 93 90 90 88 86 86 91 93 92 87 83 88 87 87 88 92 91 89 88 90 89 89 90 90 92 89 90 86 90
12 12 12 16 51 55 60 60 67 80 60 67 82 68 76 79 80 80 82 80 92 92 91 89 94 94 94 85 80 76 82 93 93 91 91 90 91 87 86 86 87 92 91 86 88 96 91 86 91 91 90 93 90 91
11 21 57 62 63 48 78 71 81 75 77 75 73 58 70 83 86 80 69 70 78 77 73 86 92 90 81 79 81 86 88 95 95 88 83 87 90 86 88 87 88 90 91 92 95 97 87 91 89 93 95 96 93 93
40 52 60 46 80 58 63 65 69 68 71 84 65 66 76 90 75 74 72 87 91 76 79 81 86 89 93 89 84 87 91 99 97 95 85 83 88 88 83 79 81 80 80 89 95 92 92 93 92 93 100 96 96 98
46 74 55 73 73 57 74 58 76 77 83 67 72 82 88 74 62 70 78 88 93 90 67 81 94 91 84 88 96 96 99 100 100 97 83 91 94 92 91 88 87 82 82 99 96 98 95 93 93 99 98 100 98 100
37 51 80 85 86 83 82 90 88 80 69 54 78 80 76 96 99 78 76 79 69 42 52 63 91 100 98 99 99 93 85 90 97 93 92 82 72 70 78 94 95 93 99 100 100 100 100 99 98 100 99 100 100 100
74 82 46 73 80 89 76 85 75 56 75 83 84 62 75 86 78 73 53 41 34 42 53 76 81 89 98 91 89 89 92 94 95 91 82 75 73 79 86 98 100 94 95 100 100 100 100 100 100 100 100 100 100 100
75 87 83 66 78 83 76 64 67 86 86 84 74 68 67 74 42 26 28 32 39 68 82 76 74 81 90 96 89 92 91 89 99 92 91 86 83 82 96 100 100 100 100 100 100 100 100 99 99 100 100 100 100 100
72 97 72 77 49 44 77 82 85 80 77 81 84 77 69 47 26 26 30 34 56 91 80 74 72 80 94 100 100 95 87 88 96 100 98 94 95 99 99 100 100 100 100 100 100 100 100 100 100 100 100 100 98 100
90 91 70 86 63 86 86 87 88 85 81 78 82 90 77 61 31 26 33 38 68 84 92 80 71 75 92 100 100 100 96 90 85 92 100 100 100 100 100 100 100 100 100 100 100 100 100 100 100 100 99 100 99 100
89 77 71 40 62 79 69 90 95 93 96 94 86 98 85 86 71 28 31 38 72 98 96 75 74 78 66 67 70 76 94 90 82 97 100 100 100 100 100 100 100 100 100 100 100 100 100 100 100 100 98 98 100 100
88 90 90 83 77 66 84 80 78 75 86 84 81 93 92 77 58 27 30 41 82 85 82 66 57 60 57 67 68 72 81 70 84 91 100 95 95 94 100 100 100 100 100 100 100 100 100 100 100 100 100 100 98 99

GFSWCAN_925_rhum_363.txt.gz
RH
86 82 78 82 72 65 63 62 62 50 21 12 24 24 12 8 11 9 19 20 58 70 63 78 72 75 68 61 62 54 58 42 52 55 48 47 50 55 49 67 75 59 78 55 46 49 68 66 43 57 73 61 56 53
84 82 77 74 48 58 43 66 61 54 42 29 21 12 8 8 8 11 24 19 34 62 58 42 52 56 70 76 87 58 61 66 67 60 55 38 44 37 62 50 45 45 77 76 67 59 76 69 74 68 71 66 50 53
80 82 80 78 71 26 14 19 31 63 63 65 68 57 20 12 10 10 14 15 43 65 77 52 45 43 71 75 86 85 49 74 62 82 62 51 59 52 55 76 66 71 76 64 68 65 52 58 55 58 55 63 51 46
76 68 58 54 26 14 14 15 24 28 46 65 68 69 73 64 22 13 27 20 40 28 38 53 41 54 48 67 88 98 82 63 56 50 63 61 59 50 62 74 72 75 71 78 58 54 60 67 56 55 52 44 46 46
54 60 21 10 8 10 11 56 74 80 71 44 49 22 18 78 73 32 27 54 27 64 43 40 45 45 42 53 58 64 68 66 60 65 69 74 56 62 53 71 74 88 90 85 84 69 66 64 64 60 66 66 61 63
18 14 13 14 14 13 16 68 78 71 67 75 60 25 17 81 56 39 41 49 44 24 44 41 43 37 41 53 42 44 44 53 69 70 79 81 89 80 72 79 82 86 90 92 85 81 77 76 80 75 80 82 77 79
10 12 12 13 18 30 78 87 74 77 73 72 69 27 21 18 34 41 46 45 24 26 43 46 41 38 46 47 47 47 49 69 70 75 75 69 69 69 76 84 88 82 80 85 90 92 91 82 82 78 84 78 76 82
9 11 13 16 46 90 92 75 81 94 77 63 62 40 26 26 37 64 44 36 25 41 47 68 53 44 51 45 59 50 67 61 67 77 74 74 71 77 82 85 87 82 82 73 86 93 89 86 91 88 90 96 95 94
15 16 19 42 81 92 87 40 29 77 70 65 52 34 27 32 35 63 37 36 33 52 73 68 76 71 52 46 51 60 60 60 55 62 72 68 67 84 82 92 91 90 93 93 88 86 90 98 94 89 86 86 93 90
18 21 24 45 86 88 57 49 62 65 50 30 26 29 37 38 37 35 42 43 52 54 64 76 64 71 64 57 64 73 68 67 74 73 62 73 84 86 93 84 94 90 91 92 93 83 82 81 82 85 87 84 89 90
24 23 20 29 41 27 25 36 28 28 22 22 33 36 29 26 38 37 64 64 60 67 68 74 75 82 66 88 88 85 85 68 70 71 68 67 87 88 86 80 90 89 84 85 87 89 86 88 89 88 84 79 80 83
23 21 17 19 23 24 23 22 24 26 27 28 28 23 29 49 61 61 66 52 63 72 70 76 76 73 68 73 86 78 84 75 76 66 76 85 88 82 76 78 75 74 82 86 84 91 89 87 81 82 83 83 83 85
22 18 19 18 18 21 24 25 25 25 25 19 29 58 67 67 64 61 72 61 72 75 81 81 82 77 70 70 85 89 75 83 70 78 77 79 74 72 75 76 74 70 71 74 76 75 76 79 78 80 86 83 84 86
19 18 16 17 16 16 16 16 22 21 17 66 67 54 68 65 57 62 65 65 60 73 78 82 84 83 78 85 84 90 79 82 72 71 56 69 74 75 69 69 76 77 76 79 82 84 83 82 85 83 82 84 88 90
16 16 14 15 15 12 11 12 13 14 23 70 65 64 63 53 65 70 70 75 63 70 79 81 82 80 79 84 74 71 71 69 76 66 75 72 74 70 74 76 79 83 82 86 84 86 87 87 89 88 83 85 90 88
13 15 15 14 12 11 11 11 11 13 31 72 69 62 54 65 65 68 74 74 66 76 77 82 86 74 85 93 71 84 74 73 74 77 75 71 74 74 77 76 80 83 84 85 82 83 84 86 90 87 84 77 79 84
12 13 13 13 13 11 10 11 13 49 73 64 77 58 64 67 64 62 63 65 72 73 88 84 81 87 85 72 71 67 79 84 81 76 67 69 76 78 76 79 81 83 87 86 87 87 86 86 85 74 77 76 77 86
15 15 13 13 13 13 12 15 32 71 70 82 72 70 58 57 60 61 62 68 74 81 80 94 88 73 75 81 66 69 76 70 66 67 67 67 68 68 74 84 86 87 89 88 91 88 82 80 85 73 77 79 78 74
13 13 13 13 12 13 27 40 44 76 88 77 72 69 64 63 68 71 67 66 81 83 84 84 75 79 74 66 84 80 76 78 84 74 68 62 59 70 78 79 82 83 86 90 88 86 82 77 76 79 77 86 83 79
10 10 11 12 11 15 57 71 48 76 78 79 73 75 73 70 78 72 64 67 80 81 83 87 89 90 92 85 83 86 84 82 84 83 69 63 70 74 73 78 79 82 86 85 83 75 85 80 76 78 85 85 81 88
12 11 10 10 14 20 65 85 82 88 82 78 82 78 79 78 72 76 77 78 80 90 89 87 89 81 82 84 86 82 81 79 82 85 89 86 74 72 75 76 77 81 86 86 84 82 79 85 88 91 91 88 84 86
12 11 11 14 23 37 76 76 82 83 77 79 77 74 77 73 76 79 84 87 89 90 91 92 90 90 87 85 84 83 80 80 82 82 77 74 78 76 78 79 82 85 86 88 88 87 86 91 85 84 93 84 86 84
11 10 12 17 58 59 63 59 66 72 64 70 78 65 72 76 75 81 79 82 90 93 84 78 76 82 86 81 76 73 73 80 83 83 82 78 77 76 78 81 80 83 87 84 82 84 93 81 83 87 87 88 91 86
10 20 62 66 67 60 72 73 70 67 68 69 69 61 67 76 80 79 75 75 76 80 62 65 66 76 76 74 74 74 75 83 89 84 79 81 79 78 82 81 78 76 78 83 85 95 88 86 86 88 88 93 90 91
48 56 67 54 74 62 64 65 67 66 64 69 62 67 73 80 72 76 90 86 76 74 60 58 69 78 86 82 79 81 81 88 96 94 82 76 85 90 85 80 77 77 79 86 94 89 90 93 91 90 96 95 96 97
48 73 60 62 71 63 65 65 66 69 65 66 64 70 77 74 83 90 85 83 78 66 74 77 85 89 83 82 90 90 92 96 100 94 84 87 98 99 93 90 86 81 84 99 94 97 95 92 92 97 96 96 93 98
46 56 72 76 65 65 67 71 70 68 65 64 69 69 81 90 88 74 66 67 76 53 81 89 96 94 89 93 92 94 97 99 100 99 100 92 83 80 89 96 94 94 99 99 100 100 99 98 98 98 98 96 98 100
65 67 60 67 68 69 68 67 65 62 60 66 70 73 83 81 78 74 38 39 44 55 86 86 73 70 84 86 90 96 96 97 93 88 80 74 76 80 89 97 100 95 95 100 100 100 100 100 100 100 100 100 100 100
68 71 69 68 75 65 69 62 62 68 71 66 68 64 65 61 51 34 29 33 40 77 93 87 76 76 81 82 82 85 89 94 97 90 88 86 82 82 94 99 100 100 100 100 100 98 98 98 98 99 100 100 100 100
71 84 65 70 57 56 70 76 73 81 78 81 82 73 66 49 28 26 29 36 53 90 96 95 74 78 89 93 92 87 85 92 96 100 97 94 95 98 99 100 100 100 100 100 100 100 96 98 96 97 98 96 95 100
77 76 66 65 68 78 85 79 76 80 79 83 78 80 72 63 30 26 34 40 69 83 88 80 67 65 87 95 100 99 96 89 92 98 100 100 100 100 100 99 100 100 100 100 100 100 100 100 99 98 96 98 96 96
72 67 70 53 70 80 71 78 79 80 83 83 77 85 78 78 76 32 45 38 68 78 75 67 72 76 64 69 70 83 94 87 89 100 100 100 100 100 100 100 100 100 100 100 100 100 100 100 100 98 100 97 98 100
76 76 77 70 74 68 74 77 70 75 77 79 76 78 76 73 66 32 40 45 73 66 68 49 56 54 56 63 66 74 80 74 85 94 100 97 96 97 100 100 100 100 100 100 100 100 100 100 100 100 100 99 100 100